Tampa Macdill AFB, FL

1:40 AM EDT on October 21, 2019 (GMT -0400)
MacDill Air Force Base

Weather History for KMCF - August, 2019

Change the Weather History Date:

Saturday, August 31, 2019

  Actual Average Record
Temperature  
Mean Temperature 84 °F -  
Max Temperature 91 °F 87 °F 95 °F (2017)
Min Temperature 77 °F 73 °F 71 °F (1998)
Cooling Degree Days 18    
Growing Degree Days 34 (Base 50)    
Moisture  
Dew Point 75 °F    
Average Humidity 80    
Maximum Humidity 94    
Minimum Humidity 60    
Precipitation  
Precipitation 0.02 in - - ()
Sea Level Pressure  
Sea Level Pressure 29.96 in    
Wind  
Wind Speed 10 mph (East)    
Max Wind Speed 20 mph    
Max Gust Speed 25 mph    
Visibility 10 miles    
Events Rain , Thunderstorm    
Averages and records for this station are not official NWS values.
T = Trace of Precipitation, MM = Missing Value Source: NWS Daily Summary

Daily Weather History Graph

Daily Weather History Graph

Search for Another Location

Airport or City:

Astronomy

Aug. 31, 2019 Rise Set
Actual Time 7:08 AM EDT 7:52 PM EDT
Civil Twilight 6:44 AM EDT 8:16 PM EDT
Nautical Twilight 6:16 AM EDT 8:44 PM EDT
Astronomical Twilight 5:47 AM EDT 9:12 PM EDT
Moon 8:20 AM EDT (8/31) 9:10 PM EDT (8/31)
Length of Visible Light 13h 31m
Length of Day
12h 43m
New Moon, 2% of the Moon is Illuminated
Aug 31
New Moon
Sep 5
First Quarter
Sep 14
Full
Sep 21
Last Quarter
Sep 28
New

Hourly Weather History & Observations

Time (EDT) Temp. Heat Index Dew Point Humidity Pressure Visibility Wind Dir Wind Speed Gust Speed Precip Events Conditions
12:56 AM 79.0 °F - 76.1 °F 91% 29.98 in 10.0 mi East 8.1 mph - N/A   Clear
1:56 AM 78.6 °F - 75.7 °F 91% 29.98 in 10.0 mi East 8.1 mph - N/A   Clear
2:56 AM 78.4 °F - 75.6 °F 91% 29.96 in 10.0 mi ESE 6.9 mph - N/A   Clear
3:56 AM 78.4 °F - 75.2 °F 90% 29.95 in 10.0 mi East 8.1 mph - N/A   Clear
4:56 AM 77.4 °F - 74.5 °F 91% 29.95 in 10.0 mi ENE 8.1 mph - N/A   Clear
5:56 AM 77.7 °F - 75.4 °F 92% 29.95 in 10.0 mi East 9.2 mph - N/A   Clear
6:56 AM 77.7 °F - 75.4 °F 92% 29.97 in 10.0 mi East 10.4 mph - N/A   Clear
6:59 AM 77.0 °F - 75.2 °F 94% 29.97 in 10.0 mi East 11.5 mph - N/A   Partly Cloudy
7:00 AM 77.0 °F - 75.2 °F 94% 29.97 in 10.0 mi East 10.4 mph - N/A   Light Drizzle
7:04 AM 77.0 °F - 75.2 °F 94% 29.97 in 10.0 mi East 10.4 mph - N/A   Partly Cloudy
7:56 AM 78.8 °F - 76.3 °F 92% 29.98 in 10.0 mi East 10.4 mph - 0.00 in   Clear
9:56 AM 84.6 °F 94.3 °F 76.8 °F 77% 29.99 in 10.0 mi East 12.7 mph - N/A   Partly Cloudy
10:26 AM 86.0 °F 96.9 °F 77.0 °F 74% 29.99 in 10.0 mi East 15.0 mph - N/A   Mostly Cloudy
10:41 AM 86.0 °F 96.9 °F 77.0 °F 74% 29.99 in 10.0 mi East 11.5 mph - N/A   Scattered Clouds
10:46 AM 86.0 °F 96.9 °F 77.0 °F 74% 29.99 in 10.0 mi ESE 12.7 mph - N/A   Mostly Cloudy
10:51 AM 86.0 °F 96.9 °F 77.0 °F 74% 29.99 in 10.0 mi East 15.0 mph - N/A   Scattered Clouds
10:56 AM 86.7 °F 97.3 °F 76.5 °F 71% 29.99 in 10.0 mi East 13.8 mph - N/A   Scattered Clouds
11:56 AM 89.4 °F 100.5 °F 75.9 °F 64% 29.99 in 10.0 mi ESE 12.7 mph - N/A   Clear
12:56 PM 90.7 °F 101.3 °F 75.2 °F 60% 29.97 in 10.0 mi SE 11.5 mph - N/A   Partly Cloudy
1:56 PM 90.7 °F 101.3 °F 75.2 °F 60% 29.97 in 10.0 mi SE 10.4 mph - N/A   Clear
2:51 PM 89.6 °F 99.8 °F 75.2 °F 62% 29.95 in 10.0 mi ESE 15.0 mph 24.2 mph N/A   Light Drizzle
2:56 PM 88.0 °F 99.6 °F 76.8 °F 69% 29.94 in 9.0 mi SE 10.4 mph 20.7 mph 0.00 in Rain Light Rain
3:28 PM 84.2 °F 92.3 °F 75.2 °F 74% 29.94 in 10.0 mi ENE 11.5 mph - N/A   Partly Cloudy
3:56 PM 85.5 °F 94.6 °F 75.4 °F 72% 29.94 in 10.0 mi East 10.4 mph - 0.00 in   Clear
4:17 PM 86.0 °F 95.1 °F 75.2 °F 70% 29.93 in 10.0 mi ENE 5.8 mph - N/A Thunderstorm Thunderstorm
4:34 PM 82.4 °F 87.2 °F 71.6 °F 70% 29.94 in 10.0 mi SE 19.6 mph 25.3 mph N/A Rain , Thunderstorm Light Thunderstorms and Rain
4:36 PM 82.4 °F 87.2 °F 71.6 °F 70% 29.94 in 10.0 mi SE 17.3 mph 24.2 mph N/A Rain , Thunderstorm Light Rain
4:56 PM 77.9 °F - 71.2 °F 80% 29.93 in 10.0 mi SE 5.8 mph - 0.01 in Rain , Thunderstorm Light Rain
5:10 PM 78.8 °F - 73.4 °F 83% 29.92 in 10.0 mi ENE 5.8 mph - N/A   Scattered Clouds
5:56 PM 81.1 °F 87.4 °F 75.4 °F 83% 29.92 in 10.0 mi NE 4.6 mph - 0.01 in   Clear
6:56 PM 82.9 °F 92.1 °F 77.2 °F 83% 29.92 in 10.0 mi ENE 5.8 mph - N/A   Clear
7:56 PM 81.9 °F 88.5 °F 75.0 °F 80% 29.93 in 10.0 mi ENE 11.5 mph - N/A   Clear
8:56 PM 80.4 °F 85.5 °F 74.3 °F 82% 29.95 in 10.0 mi ENE 8.1 mph - N/A   Clear
9:56 PM 81.0 °F 86.5 °F 74.5 °F 81% 29.97 in 10.0 mi East 9.2 mph - N/A   Clear
10:56 PM 80.1 °F 84.6 °F 74.3 °F 82% 29.98 in 10.0 mi East 8.1 mph - N/A   Clear
11:56 PM 79.9 °F - 74.5 °F 83% 29.98 in 10.0 mi East 8.1 mph - N/A   Clear